{"data":{"norad_id":54798,"epoch":"2026-05-25T03:09:45.995904Z","epoch_age_seconds":59819,"freshness":"FRESH","line1":"1 54798U 22175AS  26145.13178236 -.00000309  00000+0 -13351-5 0  9990","line2":"2 54798  53.2135  35.7216 0001500  70.7752 289.3402 15.08835711191819","mean_motion":15.08835711,"eccentricity":0.00015,"inclination_deg":53.2135,"raan_deg":35.7216,"arg_perigee_deg":70.7752,"mean_anomaly_deg":289.3402,"bstar":-1.3351e-6,"rev_number":19181,"period_min":95.437825967522,"perigee_km":538.7188147275,"apogee_km":540.79418277713,"semimajor_km":6917.8934987523,"source":"CELESTRAK","updated_at":"2026-05-25T13:38:17.696325Z"}}